| time (UTC) | temp F | wind direction | speed knots | gust knots | rain 1hr in | rain 24hr in | rain mn in | humidity % | barometer mb |
| 20260504190003 | 78 | 212 | 4.3 | 12.2 | 0.00 | 0.00 | 0.00 | 36 | 1012.7 |
| 20260504185503 | 78 | 244 | 5.2 | 12.2 | 0.00 | 0.00 | 0.00 | 36 | 1012.7 |
| 20260504185003 | 78 | 202 | 3.5 | 7.0 | 0.00 | 0.00 | 0.00 | 36 | 1012.7 |
| 20260504184503 | 78 | 273 | 3.5 | 10.4 | 0.00 | 0.00 | 0.00 | 35 | 1012.8 |
| 20260504184003 | 78 | 254 | 4.3 | 10.4 | 0.00 | 0.00 | 0.00 | 36 | 1012.8 |
| 20260504183504 | 79 | 206 | 5.2 | 13.0 | 0.00 | 0.00 | 0.00 | 36 | 1012.9 |
| 20260504183118 | 78 | 233 | 5.2 | 13.0 | 0.00 | 0.00 | 0.00 | 35 | 1012.9 |
| 20260504182503 | 79 | 234 | 4.3 | 13.0 | 0.00 | 0.00 | 0.00 | 35 | 1012.9 |
| 20260504182003 | 78 | 191 | 2.6 | 13.0 | 0.00 | 0.00 | 0.00 | 35 | 1012.8 |
| 20260504181503 | 78 | 232 | 7.0 | 13.0 | 0.00 | 0.00 | 0.00 | 35 | 1013.1 |
| 20260504181003 | 78 | 243 | 5.2 | 13.0 | 0.00 | 0.00 | 0.00 | 35 | 1013.1 |
| 20260504180504 | 78 | 232 | 2.6 | 13.0 | 0.00 | 0.00 | 0.00 | 35 | 1013.3 |
| 20260504180119 | 78 | 225 | 3.5 | 10.4 | 0.00 | 0.00 | 0.00 | 36 | 1013.3 |
| 20260504175503 | 78 | 197 | 3.5 | 9.6 | 0.00 | 0.00 | 0.00 | 38 | 1013.3 |
| 20260504175003 | 78 | 229 | 4.3 | 9.6 | 0.00 | 0.00 | 0.00 | 37 | 1013.3 |
| 20260504174503 | 77 | 215 | 3.5 | 10.4 | 0.00 | 0.00 | 0.00 | 38 | 1013.4 |
| 20260504174003 | 77 | 231 | 5.2 | 15.6 | 0.00 | 0.00 | 0.00 | 37 | 1013.4 |
| 20260504173503 | 76 | 216 | 4.3 | 15.6 | 0.00 | 0.00 | 0.00 | 38 | 1013.6 |
| 20260504173003 | 77 | 239 | 6.1 | 14.8 | 0.00 | 0.00 | 0.00 | 37 | 1013.7 |
| 20260504172503 | 77 | 250 | 4.3 | 10.4 | 0.00 | 0.00 | 0.00 | 39 | 1013.8 |
| 20260504172003 | 77 | 232 | 2.6 | 10.4 | 0.00 | 0.00 | 0.00 | 41 | 1013.7 |
| 20260504171503 | 76 | 269 | 3.5 | 11.3 | 0.00 | 0.00 | 0.00 | 38 | 1013.9 |
| 20260504171003 | 77 | 247 | 4.3 | 11.3 | 0.00 | 0.00 | 0.00 | 39 | 1014.1 |
| 20260504170503 | 77 | 256 | 1.7 | 8.7 | 0.00 | 0.00 | 0.00 | 39 | 1014.1 |
| 20260504151003 | 71 | 234 | 6.1 | 13.9 | 0.00 | 0.00 | 0.00 | 48 | 1015.0 |
| 20260504150503 | 70 | 232 | 4.3 | 13.0 | 0.00 | 0.00 | 0.00 | 48 | 1015.0 |
| 20260504141003 | 68 | 239 | 5.2 | 16.5 | 0.00 | 0.00 | 0.00 | 51 | 1015.5 |
| 20260504140619 | 68 | 245 | 7.0 | 13.9 | 0.00 | 0.00 | 0.00 | 51 | 1015.5 |
| 20260504130503 | 62 | 219 | 0.9 | 3.5 | 0.00 | 0.00 | 0.00 | 64 | 1015.5 |
| 20260504130118 | 61 | 198 | 0.9 | 3.5 | 0.00 | 0.00 | 0.00 | 65 | 1015.6 |
| 20260504110618 | 46 | 0 | 0.0 | 0.0 | 0.00 | 0.00 | 0.00 | 93 | 1014.9 |
| 20260504100503 | 46 | 0 | 0.0 | 0.0 | 0.00 | 0.00 | 0.00 | 92 | 1014.7 |
| 20260504100118 | 46 | 0 | 0.0 | 0.0 | 0.00 | 0.00 | 0.00 | 92 | 1014.7 |
| 20260504082003 | 48 | 0 | 0.0 | 0.0 | 0.00 | 0.00 | 0.00 | 88 | 1014.7 |
| 20260504081503 | 48 | 0 | 0.0 | 0.0 | 0.00 | 0.00 | 0.00 | 88 | 1014.7 |
| 20260504081004 | 48 | 0 | 0.0 | 0.0 | 0.00 | 0.00 | 0.00 | 88 | 1014.8 |
| 20260504080504 | 48 | 0 | 0.0 | 0.0 | 0.00 | 0.00 | 0.00 | 88 | 1014.8 |
| 20260504050504 | 50 | 0 | 0.0 | 0.0 | 0.00 | 0.00 | 0.00 | 83 | 1016.3 |
| 20260504050003 | 50 | 0 | 0.0 | 0.0 | 0.00 | 0.00 | 0.00 | 83 | 1016.4 |
| 20260504045503 | 50 | 0 | 0.0 | 0.0 | 0.00 | 0.00 | 0.00 | 82 | 1016.4 |
| 20260504045004 | 50 | 0 | 0.0 | 0.0 | 0.00 | 0.00 | 0.00 | 82 | 1016.2 |
| 20260504044618 | 50 | 0 | 0.0 | 0.0 | 0.00 | 0.00 | 0.00 | 80 | 1016.3 |
| 20260504044003 | 51 | 0 | 0.0 | 0.0 | 0.00 | 0.00 | 0.00 | 80 | 1016.4 |
| 20260504043503 | 51 | 0 | 0.0 | 0.0 | 0.00 | 0.00 | 0.00 | 80 | 1016.5 |
| 20260504043003 | 51 | 0 | 0.0 | 0.0 | 0.00 | 0.00 | 0.00 | 80 | 1016.6 |
| 20260504042503 | 51 | 0 | 0.0 | 0.0 | 0.00 | 0.00 | 0.00 | 79 | 1016.5 |
| 20260504042003 | 51 | 0 | 0.0 | 0.0 | 0.00 | 0.00 | 0.00 | 79 | 1016.5 |
| 20260504041503 | 51 | 0 | 0.0 | 0.0 | 0.00 | 0.00 | 0.00 | 79 | 1016.6 |
| 20260504041004 | 52 | 0 | 0.0 | 0.0 | 0.00 | 0.00 | 0.00 | 79 | 1016.5 |
| 20260504040618 | 52 | 0 | 0.0 | 0.0 | 0.00 | 0.00 | 0.00 | 78 | 1016.6 |
| 20260504040003 | 52 | 0 | 0.0 | 0.0 | 0.00 | 0.00 | 0.00 | 79 | 1016.5 |
| 20260504035503 | 52 | 0 | 0.0 | 0.0 | 0.00 | 0.00 | 0.00 | 79 | 1016.6 |
| 20260504035003 | 52 | 0 | 0.0 | 0.0 | 0.00 | 0.00 | 0.00 | 79 | 1016.6 |
| 20260504034503 | 52 | 0 | 0.0 | 0.0 | 0.00 | 0.00 | 0.00 | 78 | 1016.5 |
| 20260504034118 | 52 | 0 | 0.0 | 0.0 | 0.00 | 0.00 | 0.00 | 76 | 1016.5 |
| 20260504033503 | 52 | 0 | 0.0 | 0.0 | 0.00 | 0.00 | 0.00 | 74 | 1016.5 |
| 20260504033003 | 52 | 0 | 0.0 | 0.0 | 0.00 | 0.00 | 0.00 | 74 | 1016.6 |
| 20260504032503 | 53 | 0 | 0.0 | 0.0 | 0.00 | 0.00 | 0.00 | 72 | 1016.6 |
| 20260504032004 | 53 | 0 | 0.0 | 0.0 | 0.00 | 0.00 | 0.00 | 72 | 1016.5 |
| 20260504031618 | 53 | 0 | 0.0 | 0.0 | 0.00 | 0.00 | 0.00 | 71 | 1016.6 |
| 20260504031003 | 53 | 0 | 0.0 | 0.0 | 0.00 | 0.00 | 0.00 | 70 | 1016.6 |
| 20260504030618 | 53 | 0 | 0.0 | 0.0 | 0.00 | 0.00 | 0.00 | 69 | 1016.6 |
| 20260504030003 | 54 | 0 | 0.0 | 0.0 | 0.00 | 0.00 | 0.00 | 69 | 1016.6 |
| 20260504025618 | 54 | 0 | 0.0 | 0.0 | 0.00 | 0.00 | 0.00 | 69 | 1016.6 |
| 20260504025003 | 54 | 0 | 0.0 | 0.0 | 0.00 | 0.00 | 0.00 | 66 | 1016.6 |
| 20260504024503 | 55 | 0 | 0.0 | 0.0 | 0.00 | 0.00 | 0.00 | 65 | 1016.6 |
| 20260504024003 | 55 | 0 | 0.0 | 0.0 | 0.00 | 0.00 | 0.00 | 65 | 1016.6 |
| 20260504023618 | 55 | 0 | 0.0 | 0.0 | 0.00 | 0.00 | 0.00 | 65 | 1016.7 |
| 20260504023118 | 55 | 0 | 0.0 | 0.0 | 0.00 | 0.00 | 0.00 | 65 | 1016.8 |
| 20260504022504 | 55 | 0 | 0.0 | 0.0 | 0.00 | 0.00 | 0.00 | 64 | 1016.8 |
| 20260504022003 | 56 | 0 | 0.0 | 0.0 | 0.00 | 0.00 | 0.00 | 62 | 1016.9 |
| 20260504021618 | 56 | 0 | 0.0 | 0.0 | 0.00 | 0.00 | 0.00 | 64 | 1016.7 |
| 20260504021003 | 56 | 0 | 0.0 | 0.0 | 0.00 | 0.00 | 0.00 | 61 | 1016.7 |
| 20260504020618 | 57 | 0 | 0.0 | 0.0 | 0.00 | 0.00 | 0.00 | 61 | 1016.7 |
| 20260504020003 | 57 | 0 | 0.0 | 0.0 | 0.00 | 0.00 | 0.00 | 60 | 1016.6 |
| 20260504015503 | 58 | 0 | 0.0 | 0.0 | 0.00 | 0.00 | 0.00 | 58 | 1016.6 |
| 20260504015004 | 58 | 0 | 0.0 | 0.0 | 0.00 | 0.00 | 0.00 | 58 | 1016.5 |
| 20260504014503 | 58 | 0 | 0.0 | 0.0 | 0.00 | 0.00 | 0.00 | 55 | 1016.4 |
| 20260504014003 | 59 | 0 | 0.0 | 0.0 | 0.00 | 0.00 | 0.00 | 53 | 1016.3 |
| 20260504013503 | 60 | 0 | 0.0 | 0.0 | 0.00 | 0.00 | 0.00 | 52 | 1016.3 |
| 20260504013118 | 60 | 0 | 0.0 | 0.0 | 0.00 | 0.00 | 0.00 | 51 | 1016.1 |
| 20260504012503 | 61 | 0 | 0.0 | 0.0 | 0.00 | 0.00 | 0.00 | 50 | 1016.2 |
| 20260504012118 | 61 | 0 | 0.0 | 0.0 | 0.00 | 0.00 | 0.00 | 48 | 1016.2 |
| 20260504011503 | 62 | 0 | 0.0 | 0.0 | 0.00 | 0.00 | 0.00 | 45 | 1016.0 |
| 20260504011003 | 63 | 0 | 0.0 | 0.0 | 0.00 | 0.00 | 0.00 | 44 | 1016.0 |
| 20260504010504 | 64 | 0 | 0.0 | 0.0 | 0.00 | 0.00 | 0.00 | 43 | 1016.0 |
| 20260504010004 | 64 | 0 | 0.0 | 0.0 | 0.00 | 0.00 | 0.00 | 42 | 1016.0 |
| 20260504005503 | 64 | 0 | 0.0 | 0.9 | 0.00 | 0.00 | 0.00 | 42 | 1015.9 |
| 20260504005118 | 64 | 0 | 0.0 | 0.9 | 0.00 | 0.00 | 0.00 | 41 | 1015.9 |